Terminal Aerodrome Forecast
Issued by NWS Upton, NY

Home | Current Version | Previous Version | Text Only | Print | Product List | Glossary On
Versions: 1 2 3 4 5 6 7 8 9 10 11 12 13 14 15 16 17 18 19 20 21 22 23 24 25 26
000
FTUS41 KOKX 180500 RRA
TAFBDR
TAF
KBDR 180541Z 1806/1906 VRB03KT P6SM SKC
     FM181200 34005KT P6SM FEW050 SCT250
     FM181800 31007KT P6SM FEW050 SCT250
     FM190100 36007KT P6SM SCT050=

USA.gov is the U.S. government's official web portal to all federal, state and local government web resources and services.